Location: *
(49.1466°N, 1.6216°E)
Time: 06:59:52
(UTC+00:00)

CENTAUR R/B - Pass Details

Date: 25 September 2023
Orbit: 693 x 1493 km, 63.4° (Epoch: 07 December)

Event Time Altitude Azimuth Distance (km) Brightness Sun altitude
Rises 20:26:56 0° 307° (NW) 3,901 7.0 -25.9°
Reaches altitude 10° 20:29:46 10° 317° (NW) 3,064 6.0 -26.3°
Maximum altitude 20:36:31 34° 21° (NNE) 2,014 4.2 -27.3°
Enters shadow 20:40:13 24° 63° (ENE) 2,499 4.3 -27.8°
